EW7405 Weather Reports


Display with metric or nautical units.
time (UTC)temp
F
wind
direction
speed
MPH
gust
MPH
rain 1hr
in
rain 24hr
in
rain mn
in
humidity
%
barometer
mb
20260510193054 59 259 1.0 11.0 0.00 0.19 0.19 86 1010.6
20260510191554 58 227 0.0 0.0 0.01 0.19 0.19 92 1010.4
20260510190051 56 281 0.0 4.0 0.09 0.19 0.19 95 1010.8
20260510184542 54 248 0.0 0.0 0.14 0.19 0.19 96 1010.9
20260510183043 52 243 0.0 0.0 0.14 0.19 0.19 96 1011.0
20260510181539 51 221 0.0 0.0 0.13 0.18 0.18 95 1011.0
20260510180138 51 261 0.0 1.0 0.06 0.11 0.11 92 1011.0
20260510174538 52 275 0.0 2.0 0.00 0.05 0.05 89 1010.9
20260510173042 53 246 0.0 7.0 0.00 0.05 0.05 88 1010.8
20260510171536 53 209 0.0 6.0 0.00 0.05 0.05 91 1010.7
20260510170037 53 191 0.0 4.0 0.00 0.05 0.05 93 1010.7
20260510164538 52 252 0.0 0.0 0.03 0.05 0.05 94 1010.7
20260510163033 52 225 0.0 5.0 0.03 0.05 0.05 93 1010.8
20260510161532 53 228 0.0 0.0 0.03 0.05 0.05 94 1010.8
20260510160031 52 105 0.0 6.0 0.03 0.05 0.05 93 1010.7
20260510154534 52 240 0.0 0.0 0.00 0.02 0.02 88 1011.0
20260510153029 52 219 0.0 2.0 0.00 0.02 0.02 88 1010.8
20260510151533 52 230 0.0 0.0 0.00 0.02 0.02 90 1010.7
20260510150027 52 219 0.0 0.0 0.00 0.02 0.02 88 1010.8
20260510144535 52 224 0.0 0.0 0.00 0.02 0.02 87 1010.7
20260510143026 52 216 0.0 0.0 0.00 0.02 0.02 87 1010.8
20260510141524 52 235 0.0 4.0 0.00 0.02 0.02 85 1011.0
20260510140020 53 225 0.0 1.0 0.00 0.02 0.02 86 1010.7
20260510134635 53 68 0.0 0.0 0.00 0.02 0.02 89 1010.4
20260510133020 52 214 0.0 2.0 0.00 0.02 0.02 92 1010.8
20260510131517 50 235 0.0 3.0 0.00 0.02 0.02 93 1010.8
20260510130014 50 133 0.0 0.0 0.00 0.02 0.02 94 1010.7
20260510124504 49 157 0.0 0.0 0.00 0.02 0.02 94 1010.5
20260510123102 48 160 0.0 0.0 0.00 0.02 0.02 95 1010.6
20260510121558 48 163 0.0 0.0 0.00 0.02 0.02 96 1010.8
20260510120054 48 76 0.0 0.0 0.00 0.02 0.02 96 1011.0
20260510114553 47 80 0.0 0.0 0.00 0.02 0.02 96 1010.5
20260510113049 47 80 0.0 0.0 0.00 0.02 0.02 96 1010.4
20260510111555 46 355 0.0 0.0 0.00 0.02 0.02 96 1010.2
20260510110046 46 332 0.0 0.0 0.00 0.02 0.02 96 1010.4
20260510104604 45 269 0.0 0.0 0.00 0.02 0.02 96 1010.2
20260510103044 45 269 0.0 0.0 0.00 0.02 0.02 96 1010.1
20260510101543 45 269 0.0 0.0 0.01 0.02 0.02 96 1009.8
20260510100041 45 269 0.0 0.0 0.02 0.02 0.02 95 1009.7
20260510094543 45 269 0.0 0.0 0.02 0.02 0.02 95 1009.6
20260510093039 45 269 0.0 0.0 0.02 0.02 0.02 94 1009.4
20260510091539 45 269 0.0 0.0 0.00 0.00 0.00 94 1009.4
20260510090036 45 269 0.0 0.0 0.00 0.00 0.00 92 1009.6
20260510084535 45 269 0.0 0.0 0.00 0.00 0.00 92 1009.7
20260510083135 45 269 0.0 0.0 0.00 0.00 0.00 91 1010.0
20260510081536 45 269 0.0 0.0 0.00 0.00 0.00 91 1009.6
20260510080034 45 269 0.0 0.0 0.00 0.00 0.00 91 1009.8
20260510074534 46 269 0.0 0.0 0.00 0.00 0.00 90 1010.0
20260510073029 46 213 0.0 0.0 0.00 0.00 0.00 90 1010.2
20260510071528 46 167 0.0 0.0 0.00 0.00 0.00 90 1010.2
20260510070026 46 263 0.0 0.0 0.00 0.00 0.00 89 1010.2
20260510064526 46 156 0.0 0.0 0.00 0.00 0.00 89 1010.2
20260510063021 46 146 0.0 0.0 0.00 0.00 0.00 89 1010.2
20260510061528 46 188 0.0 0.0 0.00 0.00 0.00 89 1010.3
20260510060040 45 98 0.0 0.0 0.00 0.00 0.00 89 1010.3
20260510054518 45 83 0.0 0.0 0.00 0.00 0.00 88 1010.2
20260510053016 45 82 0.0 0.0 0.00 0.00 0.00 88 1010.4
20260510051516 45 82 0.0 0.0 0.00 0.00 0.00 87 1010.5
20260510050015 46 82 0.0 0.0 0.00 0.00 0.00 87 1010.4
20260510044517 45 84 0.0 0.0 0.00 0.00 0.00 87 1010.2
20260510043012 45 252 0.0 0.0 0.00 0.00 0.00 86 1010.7
20260510041515 46 211 0.0 0.0 0.00 0.00 0.00 86 1010.7
20260510040008 46 200 0.0 0.0 0.00 0.00 0.00 85 1010.5
20260510034507 46 250 0.0 0.0 0.00 0.00 0.00 86 1010.7
20260510033006 46 360 0.0 0.0 0.00 0.00 0.00 85 1010.7
20260510031506 46 199 0.0 0.0 0.00 0.00 0.00 84 1010.8
20260510030005 46 216 0.0 0.0 0.00 0.00 0.00 84 1011.0
20260510024504 46 94 0.0 2.0 0.00 0.00 0.00 84 1011.2
20260510023002 46 66 0.0 2.0 0.00 0.00 0.00 82 1011.0
20260510021502 46 27 0.0 0.0 0.00 0.00 0.00 83 1011.0
20260510020001 46 146 0.0 0.0 0.00 0.00 0.00 83 1011.1
20260510014600 46 301 0.0 0.0 0.00 0.00 0.00 83 1011.5
20260510013100 46 301 0.0 0.0 0.00 0.00 0.00 82 1011.6
20260510011625 46 213 0.0 2.0 0.00 0.00 0.00 82 1011.5
20260510010109 46 80 0.0 0.0 0.00 0.00 0.00 82 1011.5
20260510004559 46 79 0.0 0.0 0.00 0.00 0.00 82 1011.5
20260510003107 46 80 0.0 0.0 0.00 0.00 0.00 81 1011.3
20260510001557 46 82 0.0 0.0 0.00 0.00 0.00 80 1011.1
20260510000059 46 153 0.0 0.0 0.00 0.00 0.00 81 1011.1
20260509234606 46 153 0.0 0.0 0.00 0.00 0.00 80 1011.2
20260509233102 46 171 0.0 0.0 0.00 0.00 0.00 78 1011.2
20260509231603 46 42 0.0 0.0 0.00 0.00 0.00 78 1011.1
20260509230056 46 263 0.0 0.0 0.00 0.00 0.00 77 1011.1
20260509224602 46 143 0.0 1.0 0.00 0.00 0.00 77 1011.2
20260509223053 46 180 0.0 0.0 0.00 0.00 0.00 77 1011.4
20260509221552 46 162 0.0 2.0 0.00 0.00 0.00 77 1011.3
20260509220051 47 188 0.0 7.0 0.00 0.00 0.00 76 1011.5
20260509214548 47 178 0.0 2.0 0.00 0.00 0.00 76 1011.7
20260509213101 47 185 0.0 0.0 0.00 0.00 0.00 77 1011.8
20260509211610 47 191 0.0 0.0 0.00 0.00 0.00 77 1011.8
20260509210053 47 60 0.0 1.0 0.00 0.00 0.00 76 1011.8
20260509204558 47 349 0.0 4.0 0.00 0.00 0.00 77 1011.8
20260509203052 47 192 0.0 0.0 0.00 0.00 0.00 75 1012.0
20260509201543 47 198 0.0 1.0 0.00 0.00 0.00 77 1012.0
20260509200042 47 144 0.0 3.0 0.00 0.00 0.00 75 1012.1
20260509194543 47 155 0.0 1.0 0.00 0.00 0.00 74 1012.2